[Date Prev][Date Next][Thread Prev][Thread Next] - [Date Index][Thread Index][Author Index]
2 Line ISS 5-19
- Subject: [sarex] 2 Line ISS 5-19
- From: "Dr Dave Larsen [ PhD ]" <doc@xxxxxxxxxxx>
- Date: Sat, 19 May 2001 02:57:23 -0700
ISS
1 25544U 98067A 01139.16864009 .00034180 00000-0 41609-3 0 9829
2 25544 51.5699 235.0695 0017959 62.7142 12.0728 15.60003827142548
----
Via the sarex mailing list at AMSAT.ORG courtesy of AMSAT-NA.
To unsubscribe, send "unsubscribe sarex" to Majordomo@amsat.org
AMSAT Home